Time,TemperatureF,DewpointF,PressureIn,WindDirection,WindDirectionDegrees,WindSpeedMPH,WindSpeedGustMPH,Humidity,HourlyPrecipIn,Conditions,Clouds,dailyrainin,SoftwareType,DateUTC
2013-03-23 00:07:00,64.3,62.0,29.86,SE,135,8.0,-999.0,91,-99.99,,,0.00,weatherlink.com 1.10,2013-03-23 05:07:00,
2013-03-23 00:23:00,64.3,62.0,29.86,ENE,77,1.0,-999.0,91,-99.99,,,0.00,weatherlink.com 1.10,2013-03-23 05:23:00,
2013-03-23 00:38:00,64.2,62.0,29.86,SE,130,2.0,-999.0,91,-99.99,,,0.00,weatherlink.com 1.10,2013-03-23 05:38:00,
2013-03-23 00:53:00,64.2,62.0,29.85,ESE,117,5.0,-999.0,91,-99.99,,,0.00,weatherlink.com 1.10,2013-03-23 05:53:00,
2013-03-23 01:08:00,64.2,62.0,29.84,ESE,112,5.0,-999.0,92,-99.99,,,0.00,weatherlink.com 1.10,2013-03-23 06:08:00,
2013-03-23 01:23:00,64.2,62.0,29.83,SE,126,7.0,-999.0,92,-99.99,,,0.00,weatherlink.com 1.10,2013-03-23 06:23:00,
2013-03-23 01:37:00,64.2,62.0,29.82,ESE,111,5.0,-999.0,92,-99.99,,,0.00,weatherlink.com 1.10,2013-03-23 06:37:00,
2013-03-23 01:52:00,64.1,62.0,29.81,ESE,116,2.0,-999.0,92,-99.99,,,0.00,weatherlink.com 1.10,2013-03-23 06:52:00,
2013-03-23 02:07:00,64.1,62.0,29.81,SE,125,0.0,-999.0,92,-99.99,,,0.00,weatherlink.com 1.10,2013-03-23 07:07:00,
2013-03-23 02:23:00,64.1,62.0,29.81,SE,130,0.0,-999.0,92,-99.99,,,0.00,weatherlink.com 1.10,2013-03-23 07:23:00,
2013-03-23 02:38:00,64.1,62.0,29.82,East,79,2.0,-999.0,92,-99.99,,,0.00,weatherlink.com 1.10,2013-03-23 07:38:00,
2013-03-23 02:53:00,64.2,62.0,29.82,ESE,119,0.0,-999.0,92,-99.99,,,0.00,weatherlink.com 1.10,2013-03-23 07:53:00,
2013-03-23 03:08:00,64.2,62.0,29.81,East,95,2.0,-999.0,92,-99.99,,,0.00,weatherlink.com 1.10,2013-03-23 08:08:00,
2013-03-23 03:23:00,64.1,62.0,29.80,ESE,107,4.0,-999.0,92,-99.99,,,0.00,weatherlink.com 1.10,2013-03-23 08:23:00,
2013-03-23 03:38:00,64.0,62.0,29.80,ENE,78,1.0,-999.0,92,-99.99,,,0.00,weatherlink.com 1.10,2013-03-23 08:38:00,
2013-03-23 03:53:00,63.9,62.0,29.79,ESE,109,0.0,-999.0,92,-99.99,,,0.00,weatherlink.com 1.10,2013-03-23 08:53:00,
2013-03-23 04:08:00,63.9,62.0,29.79,East,98,4.0,-999.0,92,-99.99,,,0.00,weatherlink.com 1.10,2013-03-23 09:08:00,
2013-03-23 04:38:00,63.8,62.0,29.79,East,85,1.0,-999.0,93,-99.99,,,0.01,weatherlink.com 1.10,2013-03-23 09:38:00,
2013-03-23 04:53:00,63.5,62.0,29.79,East,92,0.0,-999.0,94,-99.99,,,0.01,weatherlink.com 1.10,2013-03-23 09:53:00,
2013-03-23 05:10:00,63.0,61.0,29.79,East,92,0.0,-999.0,94,-99.99,,,0.01,weatherlink.com 1.10,2013-03-23 10:10:00,
2013-03-23 05:23:00,62.7,61.0,29.80,East,96,0.0,-999.0,95,-99.99,,,0.01,weatherlink.com 1.10,2013-03-23 10:23:00,
2013-03-23 05:38:00,62.5,61.0,29.80,East,85,3.0,-999.0,95,-99.99,,,0.01,weatherlink.com 1.10,2013-03-23 10:38:00,
2013-03-23 05:53:00,62.3,61.0,29.80,East,100,0.0,-999.0,96,-99.99,,,0.02,weatherlink.com 1.10,2013-03-23 10:53:00,
2013-03-23 06:08:00,62.3,61.0,29.80,East,100,0.0,-999.0,96,-99.99,,,0.02,weatherlink.com 1.10,2013-03-23 11:08:00,
2013-03-23 06:23:00,62.3,61.0,29.80,SE,136,4.0,-999.0,96,-99.99,,,0.02,weatherlink.com 1.10,2013-03-23 11:23:00,
2013-03-23 06:39:00,62.7,62.0,29.79,East,85,5.0,-999.0,96,-99.99,,,0.02,weatherlink.com 1.10,2013-03-23 11:39:00,
2013-03-23 06:54:00,62.9,62.0,29.79,SE,141,5.0,-999.0,95,-99.99,,,0.02,weatherlink.com 1.10,2013-03-23 11:54:00,
2013-03-23 07:09:00,63.1,61.0,29.78,South,175,6.0,-999.0,94,-99.99,,,0.02,weatherlink.com 1.10,2013-03-23 12:09:00,
2013-03-23 07:24:00,63.3,62.0,29.79,SSE,156,5.0,-999.0,94,-99.99,,,0.02,weatherlink.com 1.10,2013-03-23 12:24:00,
2013-03-23 07:39:00,63.5,62.0,29.78,South,171,5.0,-999.0,94,-99.99,,,0.02,weatherlink.com 1.10,2013-03-23 12:39:00,
2013-03-23 07:54:00,63.5,62.0,29.78,SE,142,7.0,-999.0,93,-99.99,,,0.02,weatherlink.com 1.10,2013-03-23 12:54:00,
2013-03-23 08:09:00,63.7,62.0,29.78,SE,126,7.0,-999.0,94,-99.99,,,0.02,weatherlink.com 1.10,2013-03-23 13:09:00,
2013-03-23 08:24:00,64.0,62.0,29.78,ESE,111,2.0,-999.0,94,-99.99,,,0.02,weatherlink.com 1.10,2013-03-23 13:24:00,
2013-03-23 08:40:00,64.6,63.0,29.78,SE,140,7.0,-999.0,94,-99.99,,,0.02,weatherlink.com 1.10,2013-03-23 13:40:00,
2013-03-23 08:54:00,65.0,63.0,29.79,SE,132,11.0,-999.0,94,-99.99,,,0.02,weatherlink.com 1.10,2013-03-23 13:54:00,
2013-03-23 09:09:00,65.4,64.0,29.79,SSE,155,5.0,-999.0,94,-99.99,,,0.02,weatherlink.com 1.10,2013-03-23 14:09:00,
2013-03-23 09:26:00,65.8,64.0,29.79,SSE,164,6.0,-999.0,94,-99.99,,,0.02,weatherlink.com 1.10,2013-03-23 14:26:00,
2013-03-23 09:39:00,66.4,65.0,29.79,SSE,155,5.0,-999.0,94,-99.99,,,0.02,weatherlink.com 1.10,2013-03-23 14:39:00,
2013-03-23 09:55:00,67.0,65.0,29.79,SSE,157,5.0,-999.0,93,-99.99,,,0.02,weatherlink.com 1.10,2013-03-23 14:55:00,
2013-03-23 10:10:00,67.9,66.0,29.80,SSE,158,6.0,-999.0,93,-99.99,,,0.02,weatherlink.com 1.10,2013-03-23 15:10:00,
2013-03-23 10:25:00,68.3,66.0,29.80,SE,142,7.0,-999.0,92,-99.99,,,0.02,weatherlink.com 1.10,2013-03-23 15:25:00,
2013-03-23 10:41:00,68.8,66.0,29.80,SE,143,4.0,-999.0,92,-99.99,,,0.02,weatherlink.com 1.10,2013-03-23 15:41:00,
2013-03-23 10:55:00,69.0,67.0,29.81,ESE,113,5.0,-999.0,92,-99.99,,,0.02,weatherlink.com 1.10,2013-03-23 15:55:00,
2013-03-23 11:10:00,69.7,67.0,29.81,East,101,1.0,-999.0,92,-99.99,,,0.02,weatherlink.com 1.10,2013-03-23 16:10:00,
2013-03-23 11:25:00,70.2,68.0,29.80,SE,142,1.0,-999.0,92,-99.99,,,0.02,weatherlink.com 1.10,2013-03-23 16:25:00,
2013-03-23 11:40:00,71.3,69.0,29.80,SE,144,0.0,-999.0,91,-99.99,,,0.02,weatherlink.com 1.10,2013-03-23 16:40:00,
2013-03-23 11:55:00,72.0,69.0,29.79,SSE,159,0.0,-999.0,89,-99.99,,,0.02,weatherlink.com 1.10,2013-03-23 16:55:00,
2013-03-23 12:09:00,71.7,69.0,29.78,SE,132,0.0,-999.0,90,-99.99,,,0.02,weatherlink.com 1.10,2013-03-23 17:09:00,
2013-03-23 12:24:00,71.3,68.0,29.77,South,177,5.0,-999.0,90,-99.99,,,0.02,weatherlink.com 1.10,2013-03-23 17:24:00,
2013-03-23 12:39:00,70.6,68.0,29.77,SE,138,0.0,-999.0,92,-99.99,,,0.02,weatherlink.com 1.10,2013-03-23 17:39:00,
2013-03-23 12:54:00,70.6,69.0,29.76,SE,130,2.0,-999.0,94,-99.99,,,0.02,weatherlink.com 1.10,2013-03-23 17:54:00,
2013-03-23 13:09:00,71.0,69.0,29.75,SE,143,5.0,-999.0,94,-99.99,,,0.02,weatherlink.com 1.10,2013-03-23 18:09:00,
2013-03-23 13:25:00,71.4,69.0,29.74,SSE,150,6.0,-999.0,93,-99.99,,,0.02,weatherlink.com 1.10,2013-03-23 18:25:00,
2013-03-23 13:40:00,71.5,69.0,29.73,SSE,155,9.0,-999.0,93,-99.99,,,0.02,weatherlink.com 1.10,2013-03-23 18:40:00,
2013-03-23 13:55:00,72.7,71.0,29.72,ESE,118,2.0,-999.0,94,-99.99,,,0.02,weatherlink.com 1.10,2013-03-23 18:55:00,
2013-03-23 14:10:00,73.7,71.0,29.71,SE,130,5.0,-999.0,90,-99.99,,,0.02,weatherlink.com 1.10,2013-03-23 19:10:00,
2013-03-23 14:25:00,74.1,71.0,29.70,SE,142,4.0,-999.0,90,-99.99,,,0.02,weatherlink.com 1.10,2013-03-23 19:25:00,
2013-03-23 14:41:00,74.7,71.0,29.70,SE,130,0.0,-999.0,88,-99.99,,,0.02,weatherlink.com 1.10,2013-03-23 19:41:00,
2013-03-23 14:55:00,74.1,70.0,29.69,East,97,5.0,-999.0,88,-99.99,,,0.02,weatherlink.com 1.10,2013-03-23 19:55:00,
2013-03-23 15:10:00,73.0,70.0,29.68,ESE,109,4.0,-999.0,90,-99.99,,,0.02,weatherlink.com 1.10,2013-03-23 20:10:00,
2013-03-23 15:26:00,72.3,70.0,29.68,ESE,120,4.0,-999.0,92,-99.99,,,0.02,weatherlink.com 1.10,2013-03-23 20:26:00,
2013-03-23 15:40:00,72.2,70.0,29.66,SE,146,6.0,-999.0,93,-99.99,,,0.02,weatherlink.com 1.10,2013-03-23 20:40:00,
2013-03-23 15:55:00,71.8,70.0,29.67,South,190,5.0,-999.0,93,-99.99,,,0.02,weatherlink.com 1.10,2013-03-23 20:55:00,
2013-03-23 16:10:00,71.3,70.0,29.66,SE,131,6.0,-999.0,96,-99.99,,,0.10,weatherlink.com 1.10,2013-03-23 21:10:00,
2013-03-23 16:26:00,71.2,70.0,29.64,SSE,153,7.0,-999.0,97,-99.99,,,0.20,weatherlink.com 1.10,2013-03-23 21:26:00,
2013-03-23 16:40:00,71.2,70.0,29.64,SSE,161,4.0,-999.0,97,-99.99,,,0.22,weatherlink.com 1.10,2013-03-23 21:40:00,
2013-03-23 16:55:00,70.7,70.0,29.63,SE,126,5.0,-999.0,97,-99.99,,,0.22,weatherlink.com 1.10,2013-03-23 21:55:00,
2013-03-23 17:10:00,70.3,69.0,29.63,SE,138,0.0,-999.0,97,-99.99,,,0.22,weatherlink.com 1.10,2013-03-23 22:10:00,
2013-03-23 17:26:00,69.9,69.0,29.63,SE,144,7.0,-999.0,98,-99.99,,,0.22,weatherlink.com 1.10,2013-03-23 22:26:00,
2013-03-23 17:42:00,69.9,69.0,29.62,SE,134,6.0,-999.0,98,-99.99,,,0.22,weatherlink.com 1.10,2013-03-23 22:42:00,
2013-03-23 17:56:00,69.8,69.0,29.62,SE,137,2.0,-999.0,98,-99.99,,,0.22,weatherlink.com 1.10,2013-03-23 22:56:00,
2013-03-23 18:11:00,69.7,69.0,29.61,SE,146,0.0,-999.0,98,-99.99,,,0.22,weatherlink.com 1.10,2013-03-23 23:11:00,
2013-03-23 18:42:00,69.5,69.0,29.61,South,178,2.0,-999.0,98,-99.99,,,0.22,weatherlink.com 1.10,2013-03-23 23:42:00,
2013-03-23 18:56:00,69.4,69.0,29.61,SSE,155,4.0,-999.0,99,-99.99,,,0.22,weatherlink.com 1.10,2013-03-23 23:56:00,
2013-03-23 19:26:00,69.2,69.0,29.61,SSE,155,4.0,-999.0,99,-99.99,,,0.22,weatherlink.com 1.10,2013-03-24 00:26:00,
2013-03-23 19:41:00,69.1,69.0,29.61,SSW,192,6.0,-999.0,99,-99.99,,,0.22,weatherlink.com 1.10,2013-03-24 00:41:00,
2013-03-23 20:11:00,68.5,68.0,29.61,South,180,3.0,-999.0,99,-99.99,,,0.22,weatherlink.com 1.10,2013-03-24 01:11:00,
2013-03-23 20:26:00,68.3,68.0,29.61,South,174,2.0,-999.0,99,-99.99,,,0.22,weatherlink.com 1.10,2013-03-24 01:26:00,
2013-03-23 20:41:00,68.2,68.0,29.60,SSW,194,2.0,-999.0,99,-99.99,,,0.22,weatherlink.com 1.10,2013-03-24 01:41:00,
2013-03-23 20:56:00,68.4,68.0,29.60,SSW,212,8.0,-999.0,99,-99.99,,,0.22,weatherlink.com 1.10,2013-03-24 01:56:00,
2013-03-23 21:11:00,68.5,68.0,29.60,South,186,4.0,-999.0,99,-99.99,,,0.22,weatherlink.com 1.10,2013-03-24 02:11:00,
2013-03-23 21:25:00,68.3,68.0,29.60,South,178,2.0,-999.0,99,-99.99,,,0.22,weatherlink.com 1.10,2013-03-24 02:25:00,
2013-03-23 21:40:00,68.0,68.0,29.60,SW,219,6.0,-999.0,99,-99.99,,,0.22,weatherlink.com 1.10,2013-03-24 02:40:00,
2013-03-23 21:55:00,68.0,68.0,29.60,SSW,192,8.0,-999.0,99,-99.99,,,0.22,weatherlink.com 1.10,2013-03-24 02:55:00,
2013-03-23 22:10:00,68.1,68.0,29.59,SSW,199,8.0,-999.0,99,-99.99,,,0.22,weatherlink.com 1.10,2013-03-24 03:10:00,
2013-03-23 22:25:00,68.1,68.0,29.59,SW,219,2.0,-999.0,99,-99.99,,,0.22,weatherlink.com 1.10,2013-03-24 03:25:00,
2013-03-23 22:40:00,68.2,68.0,29.59,SSW,194,2.0,-999.0,99,-99.99,,,0.22,weatherlink.com 1.10,2013-03-24 03:40:00,
2013-03-23 22:55:00,68.2,68.0,29.59,SW,234,4.0,-999.0,99,-99.99,,,0.22,weatherlink.com 1.10,2013-03-24 03:55:00,
2013-03-23 23:10:00,68.1,68.0,29.59,SSW,198,3.0,-999.0,99,-99.99,,,0.22,weatherlink.com 1.10,2013-03-24 04:10:00,
2013-03-23 23:26:00,67.9,68.0,29.58,SSW,202,5.0,-999.0,99,-99.99,,,0.22,weatherlink.com 1.10,2013-03-24 04:26:00,
2013-03-23 23:41:00,67.8,68.0,29.59,SSW,204,1.0,-999.0,99,-99.99,,,0.22,weatherlink.com 1.10,2013-03-24 04:41:00,
2013-03-23 23:56:00,67.9,68.0,29.59,WSW,251,3.0,-999.0,99,-99.99,,,0.22,weatherlink.com 1.10,2013-03-24 04:56:00,